QPF
0.00 0.00 0.00 0.00 0.00 0.00 0.00 0.00 0.00 0.00 0.00 0.00 0.00 0.00 0.00 0.00 0.00 0.00 0.00 0.00 0.00 0.00 0.00 0.00 0.00 0.00 0.00 0.00 0.00 0.00 0.01 0.00 0.00 0.00 0.00 0.00 0.00 0.00 0.00 0.00 0.00 0.01 0.04 0.04 0.05
0.00 0.00 0.00 0.00 0.00 0.00 0.00 0.00 0.00 0.00 0.00 0.00 0.00 0.00 0.00 0.00 0.00 0.00 0.00 0.00 0.00 0.00 0.00 0.00 0.00 0.00 0.00 0.00 0.00 0.00 0.00 0.00 0.00 0.00 0.00 0.00 0.00 0.00 0.00 0.00 0.00 0.01 0.01 0.14 0.12
0.00 0.00 0.00 0.00 0.00 0.00 0.00 0.00 0.00 0.00 0.00 0.00 0.00 0.00 0.00 0.00 0.00 0.00 0.00 0.00 0.00 0.00 0.00 0.00 0.00 0.00 0.00 0.00 0.00 0.00 0.00 0.00 0.00 0.00 0.00 0.00 0.00 0.00 0.00 0.00 0.00 0.01 0.03 0.04 0.05
0.00 0.00 0.00 0.00 0.00 0.00 0.00 0.00 0.00 0.00 0.00 0.00 0.00 0.00 0.00 0.00 0.00 0.00 0.00 0.00 0.00 0.00 0.00 0.00 0.00 0.00 0.00 0.00 0.00 0.00 0.00 0.00 0.00 0.00 0.00 0.00 0.00 0.00 0.00 0.00 0.00 0.00 0.03 0.05 0.05
0.00 0.00 0.00 0.00 0.00 0.00 0.00 0.00 0.00 0.00 0.00 0.00 0.00 0.00 0.00 0.00 0.00 0.00 0.00 0.00 0.00 0.00 0.00 0.00 0.00 0.00 0.00 0.00 0.00 0.00 0.00 0.00 0.00 0.00 0.00 0.00 0.00 0.00 0.00 0.00 0.00 0.00 0.02 0.05 0.09
0.00 0.00 0.00 0.00 0.00 0.00 0.00 0.00 0.00 0.00 0.00 0.00 0.00 0.00 0.00 0.00 0.00 0.00 0.00 0.00 0.00 0.00 0.00 0.00 0.00 0.00 0.00 0.00 0.00 0.00 0.00 0.00 0.00 0.00 0.00 0.00 0.00 0.00 0.00 0.00 0.00 0.00 0.02 0.08 0.08
0.00 0.00 0.00 0.00 0.00 0.00 0.00 0.00 0.00 0.00 0.00 0.00 0.00 0.00 0.00 0.00 0.00 0.00 0.00 0.00 0.00 0.00 0.00 0.00 0.00 0.00 0.00 0.00 0.00 0.00 0.00 0.00 0.00 0.00 0.00 0.00 0.00 0.00 0.00 0.00 0.00 0.00 0.02 0.06 0.03
0.00 0.00 0.00 0.00 0.00 0.00 0.00 0.00 0.00 0.00 0.00 0.00 0.00 0.00 0.00 0.00 0.00 0.00 0.00 0.00 0.00 0.00 0.00 0.00 0.00 0.00 0.00 0.00 0.00 0.00 0.00 0.00 0.00 0.00 0.00 0.00 0.00 0.00 0.00 0.00 0.00 0.01 0.03 0.07 0.03
0.00 0.00 0.00 0.00 0.00 0.00 0.00 0.00 0.00 0.00 0.00 0.00 0.00 0.00 0.00 0.00 0.00 0.00 0.00 0.00 0.00 0.00 0.00 0.00 0.00 0.00 0.00 0.00 0.00 0.00 0.00 0.00 0.00 0.00 0.00 0.00 0.00 0.00 0.00 0.00 0.00 0.00 0.01 0.04 0.06
0.00 0.00 0.00 0.00 0.00 0.00 0.00 0.00 0.00 0.00 0.00 0.00 0.00 0.00 0.00 0.00 0.00 0.00 0.00 0.00 0.00 0.00 0.00 0.00 0.00 0.00 0.00 0.00 0.00 0.00 0.00 0.00 0.00 0.00 0.00 0.00 0.00 0.00 0.00 0.00 0.00 0.00 0.00 0.01 0.03
0.00 0.00 0.00 0.00 0.00 0.00 0.00 0.00 0.00 0.00 0.00 0.00 0.00 0.00 0.00 0.00 0.00 0.00 0.00 0.00 0.00 0.00 0.00 0.00 0.00 0.00 0.00 0.00 0.00 0.00 0.00 0.00 0.00 0.00 0.00 0.00 0.00 0.00 0.00 0.00 0.00 0.00 0.00 0.00 0.01
0.00 0.00 0.00 0.00 0.00 0.00 0.00 0.00 0.00 0.00 0.00 0.00 0.00 0.00 0.00 0.00 0.00 0.00 0.00 0.00 0.00 0.00 0.00 0.00 0.00 0.00 0.00 0.00 0.00 0.00 0.00 0.00 0.00 0.00 0.00 0.00 0.00 0.00 0.00 0.00 0.00 0.00 0.00 0.00 0.00
0.00 0.00 0.00 0.00 0.00 0.00 0.00 0.00 0.00 0.00 0.00 0.00 0.00 0.00 0.00 0.00 0.00 0.00 0.00 0.00 0.00 0.00 0.00 0.00 0.00 0.00 0.00 0.00 0.00 0.00 0.00 0.00 0.00 0.00 0.00 0.00 0.00 0.00 0.00 0.00 0.00 0.00 0.00 0.00 0.00
0.00 0.00 0.00 0.00 0.00 0.00 0.00 0.00 0.00 0.00 0.00 0.00 0.00 0.00 0.00 0.00 0.00 0.00 0.00 0.00 0.00 0.00 0.00 0.00 0.00 0.00 0.00 0.00 0.00 0.00 0.00 0.00 0.00 0.00 0.00 0.00 0.00 0.00 0.00 0.00 0.00 0.00 0.00 0.00 0.00
0.00 0.00 0.00 0.00 0.00 0.00 0.00 0.00 0.00 0.00 0.00 0.00 0.00 0.00 0.00 0.00 0.00 0.00 0.00 0.00 0.00 0.00 0.00 0.00 0.00 0.00 0.00 0.00 0.00 0.00 0.00 0.00 0.00 0.00 0.00 0.00 0.00 0.00 0.00 0.00 0.00 0.00 0.00 0.00 0.00
0.00 0.00 0.00 0.00 0.00 0.00 0.00 0.00 0.00 0.00 0.00 0.00 0.00 0.00 0.00 0.00 0.00 0.00 0.00 0.00 0.00 0.00 0.00 0.00 0.00 0.00 0.00 0.00 0.00 0.00 0.00 0.00 0.00 0.00 0.00 0.00 0.00 0.00 0.00 0.00 0.00 0.00 0.00 0.00 0.00
0.00 0.00 0.00 0.00 0.00 0.00 0.00 0.00 0.00 0.00 0.00 0.00 0.00 0.00 0.00 0.00 0.00 0.00 0.00 0.00 0.00 0.00 0.00 0.00 0.00 0.00 0.00 0.00 0.00 0.00 0.00 0.00 0.00 0.00 0.00 0.00 0.00 0.00 0.00 0.00 0.00 0.00 0.00 0.00 0.00
0.00 0.00 0.00 0.00 0.00 0.00 0.00 0.00 0.00 0.00 0.00 0.00 0.00 0.00 0.00 0.00 0.00 0.00 0.00 0.00 0.00 0.00 0.00 0.00 0.00 0.00 0.00 0.00 0.00 0.00 0.00 0.00 0.00 0.00 0.00 0.00 0.00 0.00 0.00 0.00 0.00 0.00 0.00 0.00 0.00
0.00 0.00 0.00 0.00 0.00 0.00 0.00 0.00 0.00 0.00 0.00 0.00 0.00 0.00 0.00 0.00 0.00 0.00 0.00 0.00 0.00 0.00 0.00 0.00 0.00 0.00 0.00 0.00 0.00 0.00 0.00 0.00 0.00 0.00 0.00 0.00 0.00 0.00 0.00 0.00 0.00 0.00 0.00 0.00 0.00
0.00 0.00 0.00 0.00 0.00 0.00 0.00 0.00 0.00 0.00 0.00 0.00 0.00 0.00 0.00 0.00 0.00 0.00 0.00 0.00 0.00 0.00 0.00 0.00 0.00 0.00 0.00 0.00 0.00 0.00 0.00 0.00 0.00 0.00 0.00 0.00 0.00 0.00 0.00 0.00 0.00 0.00 0.00 0.00 0.00
0.00 0.00 0.00 0.00 0.00 0.00 0.00 0.00 0.00 0.00 0.00 0.00 0.00 0.00 0.00 0.00 0.00 0.00 0.00 0.00 0.00 0.00 0.00 0.00 0.00 0.00 0.00 0.00 0.00 0.00 0.00 0.00 0.00 0.00 0.00 0.00 0.00 0.00 0.00 0.00 0.00 0.00 0.00 0.00 0.00
0.00 0.00 0.00 0.00 0.00 0.00 0.00 0.00 0.00 0.00 0.00 0.00 0.00 0.00 0.00 0.00 0.00 0.00 0.00 0.00 0.00 0.00 0.00 0.00 0.00 0.00 0.00 0.00 0.00 0.00 0.00 0.00 0.00 0.00 0.00 0.00 0.00 0.00 0.00 0.00 0.00 0.00 0.00 0.00 0.00
0.00 0.00 0.00 0.00 0.00 0.00 0.00 0.00 0.00 0.00 0.00 0.00 0.00 0.00 0.00 0.00 0.00 0.00 0.00 0.00 0.00 0.00 0.00 0.00 0.00 0.00 0.00 0.00 0.00 0.00 0.00 0.00 0.00 0.00 0.00 0.00 0.00 0.00 0.00 0.00 0.00 0.00 0.00 0.00 0.00
0.00 0.00 0.00 0.01 0.01 0.01 0.00 0.00 0.00 0.00 0.00 0.00 0.00 0.00 0.00 0.00 0.00 0.00 0.00 0.00 0.00 0.00 0.00 0.00 0.00 0.00 0.00 0.00 0.00 0.00 0.00 0.00 0.00 0.00 0.00 0.00 0.00 0.00 0.00 0.00 0.00 0.00 0.00 0.00 0.00
0.00 0.01 0.00 0.00 0.00 0.00 0.00 0.00 0.00 0.00 0.00 0.00 0.00 0.00 0.00 0.00 0.00 0.00 0.00 0.00 0.00 0.00 0.00 0.00 0.00 0.00 0.00 0.00 0.00 0.00 0.00 0.00 0.00 0.00 0.00 0.00 0.00 0.00 0.00 0.00 0.00 0.00 0.00 0.00 0.00
0.00 0.00 0.00 0.00 0.00 0.00 0.00 0.00 0.00 0.00 0.00 0.00 0.00 0.00 0.00 0.00 0.00 0.00 0.00 0.00 0.00 0.00 0.00 0.00 0.00 0.00 0.00 0.00 0.00 0.00 0.00 0.00 0.00 0.00 0.00 0.00 0.00 0.00 0.00 0.00 0.00 0.00 0.00 0.00 0.00
0.01 0.01 0.02 0.00 0.00 0.00 0.00 0.00 0.00 0.00 0.00 0.00 0.00 0.00 0.00 0.00 0.00 0.00 0.00 0.00 0.00 0.00 0.00 0.00 0.00 0.00 0.00 0.00 0.00 0.00 0.00 0.00 0.00 0.00 0.00 0.00 0.00 0.00 0.00 0.00 0.00 0.00 0.00 0.00 0.00
MSLP
1021.44 1021.11 1020.86 1020.56 1020.28 1019.98 1019.63 1019.42 1019.27 1019.06 1018.84 1018.64 1018.38 1018.15 1017.98 1017.72 1017.32 1016.91 1016.83 1016.72 1016.47 1015.98 1015.86 1015.76 1015.43 1015.29 1015.29 1015.58 1015.80 1015.94 1016.47 1016.47 1015.99 1015.45 1014.63 1013.35 1013.04 1012.00 1010.94 1010.55 1010.03 1009.33 1010.21 1010.13 1010.22
1021.56 1021.25 1020.88 1020.53 1020.23 1019.89 1019.53 1019.28 1019.12 1018.95 1018.76 1018.52 1018.24 1017.98 1017.77 1017.59 1017.49 1016.97 1016.39 1016.21 1016.04 1015.81 1015.99 1016.00 1015.87 1015.69 1015.83 1015.79 1015.87 1016.14 1016.28 1015.95 1015.24 1014.56 1014.23 1013.51 1013.18 1012.71 1011.72 1010.87 1010.48 1010.36 1010.10 1009.36 1009.96
1021.72 1021.39 1020.99 1020.61 1020.21 1019.86 1019.49 1019.19 1019.03 1018.84 1018.71 1018.50 1018.23 1017.96 1017.65 1017.45 1017.38 1016.36 1016.04 1015.92 1015.78 1015.65 1015.94 1016.01 1016.02 1016.09 1016.13 1015.93 1015.80 1015.78 1015.73 1015.43 1014.77 1014.31 1014.01 1013.39 1012.85 1012.34 1011.82 1011.16 1010.64 1010.75 1009.95 1009.89 1010.31
1021.82 1021.47 1021.06 1020.63 1020.19 1019.86 1019.58 1019.34 1019.12 1018.86 1018.66 1018.48 1018.22 1017.91 1017.57 1017.50 1017.10 1015.89 1015.77 1015.74 1015.65 1015.54 1015.72 1015.86 1016.03 1016.16 1016.39 1016.18 1015.74 1015.82 1015.24 1015.04 1014.51 1014.08 1013.92 1013.40 1012.70 1012.15 1011.55 1010.91 1010.03 1010.21 1010.07 1009.88 1010.09
1021.90 1021.50 1021.02 1020.54 1020.11 1019.79 1019.52 1019.28 1019.03 1018.74 1018.56 1018.41 1018.19 1017.87 1017.56 1017.42 1016.31 1015.49 1015.56 1015.68 1015.63 1015.57 1015.68 1015.91 1016.19 1016.40 1016.48 1016.36 1016.02 1015.69 1015.24 1014.73 1014.31 1013.95 1013.72 1013.11 1012.54 1011.93 1011.33 1010.43 1010.10 1009.91 1009.92 1009.79 1009.68
1021.89 1021.45 1020.99 1020.52 1020.04 1019.61 1019.26 1018.95 1018.66 1018.47 1018.36 1018.20 1018.02 1017.90 1017.90 1017.27 1015.39 1015.36 1015.53 1015.69 1015.72 1015.75 1015.84 1015.91 1016.16 1016.32 1016.49 1016.36 1016.18 1015.49 1015.24 1014.84 1014.22 1013.43 1013.23 1012.79 1011.98 1011.51 1010.69 1010.28 1010.19 1010.15 1010.38 1010.56 1010.52
1021.91 1021.41 1020.88 1020.36 1019.88 1019.47 1019.08 1018.68 1018.40 1018.18 1018.10 1017.95 1017.85 1017.89 1017.81 1016.37 1015.37 1015.49 1015.59 1015.68 1015.72 1015.81 1015.99 1015.93 1016.05 1016.26 1016.38 1016.20 1015.79 1015.51 1015.35 1014.65 1013.81 1013.28 1012.74 1012.10 1011.62 1011.24 1010.64 1010.42 1010.19 1010.24 1010.21 1010.64 1010.83
1021.87 1021.39 1020.83 1020.28 1019.72 1019.19 1018.71 1018.29 1018.00 1017.83 1017.73 1017.60 1017.56 1017.78 1016.97 1015.45 1015.46 1015.50 1015.44 1015.47 1015.44 1015.51 1015.73 1015.70 1015.96 1016.28 1016.28 1016.00 1015.76 1015.87 1015.72 1015.29 1014.00 1013.49 1012.80 1012.71 1012.23 1011.27 1010.30 1010.30 1010.35 1010.30 1010.15 1010.37 1010.53
1021.93 1021.36 1020.80 1020.24 1019.64 1019.00 1018.34 1017.72 1017.34 1017.22 1017.39 1017.46 1017.67 1017.68 1016.59 1015.32 1015.38 1015.13 1015.27 1015.45 1015.47 1015.48 1015.47 1015.55 1015.87 1016.34 1016.33 1016.62 1016.74 1016.56 1016.53 1015.91 1014.76 1013.70 1013.27 1013.19 1012.69 1011.44 1010.60 1010.57 1010.54 1010.38 1010.10 1010.08 1010.21
1021.92 1021.35 1020.76 1020.13 1019.44 1018.66 1017.83 1017.28 1017.05 1016.99 1017.20 1017.27 1017.42 1017.85 1016.05 1015.15 1014.93 1014.99 1015.15 1015.34 1015.49 1015.58 1015.67 1015.88 1016.28 1016.67 1016.92 1017.25 1017.36 1017.12 1016.94 1016.35 1015.71 1014.37 1013.64 1013.20 1012.70 1011.84 1011.05 1010.77 1010.32 1010.21 1009.92 1009.90 1009.66
1022.00 1021.44 1020.81 1020.08 1019.26 1018.48 1017.94 1017.48 1017.71 1017.65 1017.44 1016.43 1015.96 1015.59 1015.02 1014.81 1014.78 1015.09 1015.13 1015.46 1015.60 1015.81 1016.19 1016.30 1016.95 1016.87 1016.74 1016.86 1016.89 1017.02 1016.89 1016.56 1015.64 1014.55 1014.29 1013.31 1012.62 1011.91 1011.00 1010.58 1010.16 1009.99 1009.91 1009.76 1009.44
1021.95 1021.36 1020.66 1019.82 1019.00 1018.30 1018.33 1018.61 1018.77 1019.08 1017.76 1015.79 1015.56 1015.33 1014.77 1014.74 1014.94 1015.03 1015.17 1015.82 1016.04 1016.28 1016.39 1016.88 1016.63 1016.07 1016.22 1016.46 1016.64 1016.73 1016.75 1016.31 1015.35 1014.61 1014.43 1013.32 1012.10 1011.32 1010.52 1009.78 1009.20 1009.32 1009.50 1009.42 1009.51
1021.94 1021.30 1020.59 1019.66 1018.79 1018.59 1019.05 1018.99 1018.87 1019.00 1018.73 1015.45 1014.81 1014.46 1014.31 1014.65 1014.74 1014.60 1015.12 1015.45 1015.98 1016.43 1016.62 1016.68 1015.65 1015.50 1015.89 1015.92 1016.37 1016.39 1016.50 1016.20 1015.85 1015.07 1014.39 1013.72 1011.69 1010.70 1009.74 1009.07 1008.42 1008.33 1008.28 1008.31 1008.72
1022.10 1021.44 1020.79 1019.84 1019.13 1019.69 1019.28 1018.94 1018.94 1019.05 1019.14 1015.43 1014.32 1013.66 1013.78 1014.10 1014.55 1014.20 1014.49 1015.10 1015.77 1016.08 1016.36 1016.42 1015.49 1015.40 1015.63 1015.73 1015.89 1015.99 1015.66 1015.78 1015.93 1015.99 1015.77 1014.78 1013.52 1011.34 1009.72 1009.01 1008.37 1007.87 1008.07 1007.51 1008.01
1022.33 1021.61 1021.04 1020.51 1020.54 1019.97 1019.33 1018.89 1018.77 1019.23 1018.44 1014.99 1014.30 1013.76 1013.87 1014.38 1014.49 1014.62 1014.61 1014.92 1015.51 1015.91 1016.45 1015.55 1015.43 1015.40 1015.35 1015.19 1015.39 1015.49 1015.22 1015.72 1015.95 1016.36 1016.31 1015.54 1015.13 1011.23 1010.15 1009.10 1007.99 1007.37 1007.26 1006.95 1006.81
1022.45 1021.77 1021.08 1020.46 1020.46 1019.44 1019.02 1018.85 1019.06 1019.88 1017.62 1014.84 1014.20 1014.09 1014.51 1014.62 1014.78 1014.96 1015.02 1015.18 1015.60 1016.04 1016.04 1015.45 1015.13 1015.01 1014.58 1014.69 1014.91 1015.18 1015.48 1015.94 1016.71 1017.00 1016.80 1015.53 1015.17 1011.72 1010.00 1008.37 1007.36 1006.78 1006.58 1006.38 1006.31
1022.16 1021.28 1020.92 1020.40 1019.59 1019.08 1019.05 1019.45 1020.32 1019.04 1015.75 1014.60 1014.30 1014.53 1014.78 1014.86 1015.01 1015.13 1015.56 1015.84 1016.02 1016.55 1016.16 1015.66 1014.96 1014.32 1014.18 1014.77 1014.97 1015.40 1016.15 1016.97 1017.52 1017.54 1016.73 1015.70 1015.15 1011.04 1008.97 1007.95 1007.27 1006.76 1006.36 1006.15 1006.05
1021.69 1020.49 1019.81 1019.19 1018.86 1019.08 1019.35 1020.30 1020.19 1017.12 1015.59 1014.21 1014.28 1014.62 1014.77 1014.70 1014.92 1015.27 1015.66 1015.88 1015.72 1016.01 1016.26 1015.94 1014.93 1014.25 1013.83 1013.84 1014.27 1015.33 1016.10 1016.88 1017.12 1017.39 1016.83 1015.58 1013.73 1010.04 1007.88 1007.26 1006.98 1006.40 1006.05 1005.85 1006.02
1021.30 1020.22 1019.92 1019.02 1018.85 1019.25 1019.61 1019.90 1017.52 1016.35 1014.79 1014.27 1014.63 1014.80 1014.69 1014.39 1014.79 1015.36 1015.58 1015.24 1014.72 1014.84 1015.39 1015.46 1014.70 1013.65 1013.57 1013.67 1013.97 1015.27 1015.76 1015.75 1016.47 1016.87 1016.78 1014.87 1012.33 1009.36 1007.21 1006.98 1006.93 1006.51 1006.28 1005.89 1005.78
1021.74 1020.55 1019.86 1018.87 1018.83 1019.43 1020.13 1018.59 1016.92 1015.52 1014.66 1014.30 1014.48 1014.11 1014.32 1014.41 1014.81 1014.99 1014.57 1013.42 1013.42 1013.14 1013.31 1013.81 1014.16 1013.79 1013.65 1013.63 1013.94 1014.27 1014.71 1015.80 1016.37 1016.73 1016.21 1014.25 1012.83 1010.21 1007.82 1007.36 1006.94 1006.52 1006.62 1006.16 1005.47
1021.92 1021.10 1019.59 1019.18 1019.28 1019.96 1020.01 1018.92 1017.39 1016.08 1015.69 1015.27 1014.71 1014.57 1014.28 1014.28 1014.28 1014.36 1013.16 1012.39 1012.19 1012.55 1013.03 1013.54 1014.01 1014.24 1014.00 1013.54 1013.31 1014.23 1014.55 1015.13 1015.59 1015.88 1015.33 1014.53 1011.52 1008.68 1007.72 1007.19 1007.22 1006.91 1006.59 1006.56 1006.00
1023.44 1022.40 1020.09 1019.49 1020.25 1020.39 1020.47 1019.59 1018.36 1017.22 1016.72 1016.43 1015.51 1015.22 1014.92 1014.44 1014.13 1013.50 1012.52 1011.69 1011.31 1011.95 1012.99 1012.78 1013.28 1013.73 1013.07 1012.59 1012.50 1012.88 1013.23 1013.98 1014.81 1015.07 1014.68 1013.84 1010.57 1007.54 1007.27 1006.93 1006.84 1006.97 1006.61 1006.51 1006.24
1024.27 1022.97 1020.32 1020.04 1020.70 1021.19 1020.82 1020.38 1019.60 1018.97 1018.67 1017.57 1016.55 1015.99 1015.44 1015.22 1014.89 1012.75 1011.75 1011.05 1010.99 1011.50 1011.42 1011.98 1012.39 1013.17 1012.56 1013.07 1012.91 1012.61 1012.27 1012.55 1013.36 1013.91 1013.49 1012.75 1009.55 1007.05 1006.81 1006.64 1006.45 1006.41 1006.48 1006.51 1006.38
1024.95 1024.15 1022.35 1021.64 1022.41 1023.00 1022.68 1021.71 1021.02 1020.09 1019.35 1018.62 1018.46 1017.49 1016.58 1015.62 1014.90 1013.25 1012.37 1011.40 1010.93 1010.83 1010.63 1010.74 1010.76 1010.75 1010.61 1010.86 1011.30 1011.89 1011.36 1011.62 1012.28 1012.55 1011.39 1010.49 1008.41 1007.16 1006.42 1006.22 1005.88 1005.87 1005.97 1006.06 1006.04
1025.53 1025.16 1024.92 1024.30 1023.53 1023.33 1023.47 1022.77 1021.56 1020.75 1019.79 1019.42 1018.22 1018.46 1018.58 1017.21 1015.92 1014.58 1013.01 1012.44 1011.50 1010.56 1010.67 1010.97 1010.68 1010.30 1009.65 1009.81 1010.34 1010.38 1010.16 1010.52 1010.74 1010.04 1009.84 1008.40 1007.94 1005.45 1006.11 1006.05 1005.70 1005.59 1005.51 1005.56 1005.44
1026.21 1025.92 1025.38 1024.76 1024.44 1023.98 1023.62 1022.69 1021.75 1020.99 1020.65 1020.16 1019.67 1018.75 1018.19 1017.90 1017.51 1015.76 1014.98 1013.70 1013.06 1010.76 1010.42 1010.17 1009.72 1009.80 1009.35 1009.39 1009.65 1009.79 1009.17 1009.15 1009.11 1008.99 1008.32 1007.79 1006.61 1004.83 1005.00 1005.19 1005.13 1005.18 1005.37 1005.36 1004.89
1026.17 1026.01 1025.71 1024.53 1024.10 1023.86 1022.99 1022.03 1021.30 1020.94 1020.53 1019.89 1019.60 1019.04 1018.16 1017.02 1016.47 1015.64 1014.93 1013.60 1012.81 1012.48 1011.66 1010.73 1009.84 1009.64 1008.73 1008.97 1009.20 1008.83 1007.31 1007.95 1007.73 1007.14 1006.83 1006.84 1005.19 1004.15 1004.75 1004.75 1004.97 1004.91 1005.00 1004.96 1004.72
Thickness
5641 5644 5647 5650 5652 5654 5656 5657 5656 5656 5655 5654 5654 5653 5651 5650 5651 5651 5645 5643 5640 5637 5630 5624 5618 5607 5599 5587 5581 5575 5556 5550 5556 5559 5568 5586 5591 5618 5641 5648 5658 5673 5674 5681 5693
5639 5642 5645 5648 5650 5652 5654 5655 5654 5653 5652 5652 5651 5650 5649 5648 5645 5643 5646 5642 5637 5633 5625 5616 5608 5600 5588 5583 5576 5566 5552 5555 5566 5571 5571 5580 5587 5601 5621 5636 5648 5656 5664 5676 5683
5637 5639 5642 5645 5647 5649 5651 5652 5651 5650 5649 5648 5647 5647 5646 5645 5641 5644 5644 5639 5635 5630 5622 5614 5606 5595 5585 5580 5575 5568 5559 5564 5569 5572 5574 5581 5590 5605 5616 5629 5642 5642 5657 5673 5677
5635 5637 5639 5642 5645 5647 5647 5647 5647 5646 5645 5644 5643 5644 5643 5641 5632 5645 5641 5636 5631 5627 5620 5611 5602 5592 5580 5574 5575 5564 5569 5568 5572 5576 5576 5579 5592 5600 5616 5627 5645 5650 5656 5666 5673
5632 5634 5637 5640 5643 5644 5644 5644 5643 5643 5642 5640 5640 5640 5640 5633 5635 5644 5638 5632 5628 5624 5615 5607 5597 5587 5577 5571 5568 5565 5567 5572 5572 5573 5573 5581 5586 5597 5612 5629 5638 5648 5654 5661 5669
5631 5633 5635 5637 5640 5642 5643 5643 5642 5641 5640 5638 5636 5634 5631 5624 5643 5640 5634 5628 5623 5618 5611 5604 5594 5587 5575 5569 5566 5568 5567 5566 5568 5574 5577 5581 5590 5602 5616 5626 5631 5637 5641 5645 5654
5628 5631 5633 5635 5637 5639 5640 5641 5641 5640 5638 5636 5632 5629 5625 5627 5639 5634 5630 5625 5620 5613 5604 5601 5594 5585 5578 5570 5572 5568 5562 5566 5570 5575 5578 5585 5589 5596 5609 5612 5620 5627 5635 5637 5645
5626 5628 5631 5634 5636 5638 5639 5640 5640 5638 5636 5634 5631 5626 5623 5638 5635 5630 5627 5622 5618 5612 5605 5600 5591 5582 5577 5575 5571 5563 5560 5552 5568 5570 5576 5577 5572 5592 5603 5605 5611 5617 5627 5633 5643
5621 5624 5626 5629 5631 5635 5638 5641 5641 5639 5634 5631 5626 5621 5622 5634 5628 5629 5624 5617 5613 5609 5604 5598 5589 5578 5575 5565 5552 5550 5546 5549 5554 5567 5570 5570 5565 5582 5593 5596 5599 5607 5619 5629 5638
5617 5620 5622 5625 5628 5632 5636 5637 5636 5634 5629 5625 5623 5613 5625 5627 5628 5624 5619 5614 5608 5603 5598 5591 5579 5569 5562 5551 5531 5550 5545 5545 5543 5557 5563 5561 5561 5572 5581 5586 5594 5602 5614 5623 5635
5612 5614 5616 5619 5622 5626 5628 5628 5621 5621 5623 5626 5627 5626 5629 5627 5624 5616 5613 5606 5603 5597 5585 5584 5570 5559 5562 5560 5559 5551 5546 5539 5542 5553 5554 5556 5561 5565 5574 5579 5587 5593 5608 5615 5629
5606 5608 5610 5613 5616 5618 5616 5610 5606 5598 5602 5621 5620 5620 5622 5620 5613 5608 5606 5596 5592 5584 5584 5574 5562 5573 5569 5563 5558 5553 5546 5540 5546 5552 5552 5557 5567 5571 5574 5581 5592 5597 5602 5614 5620
5597 5599 5602 5605 5610 5607 5600 5598 5593 5587 5578 5614 5620 5619 5616 5611 5604 5602 5598 5591 5585 5579 5575 5568 5579 5580 5571 5567 5558 5551 5545 5540 5543 5546 5549 5549 5564 5573 5580 5582 5593 5600 5607 5618 5622
5586 5587 5589 5594 5595 5585 5586 5585 5580 5575 5543 5602 5612 5615 5611 5605 5597 5600 5595 5588 5581 5575 5572 5565 5577 5574 5567 5561 5557 5542 5552 5548 5544 5538 5519 5543 5547 5563 5574 5577 5586 5596 5600 5617 5619
5573 5574 5574 5574 5573 5570 5575 5573 5570 5562 5516 5599 5599 5604 5600 5592 5591 5589 5587 5582 5573 5572 5568 5571 5571 5567 5563 5562 5557 5549 5557 5550 5548 5528 5523 5529 5508 5558 5567 5576 5586 5595 5596 5611 5621
5560 5560 5561 5563 5560 5566 5565 5563 5558 5522 5517 5592 5590 5585 5582 5581 5579 5576 5575 5573 5568 5563 5559 5563 5568 5566 5564 5563 5558 5558 5552 5542 5520 5515 5534 5532 5522 5536 5565 5580 5593 5600 5601 5609 5618
5553 5555 5553 5553 5555 5557 5554 5548 5512 5498 5582 5586 5578 5571 5569 5566 5565 5562 5556 5550 5541 5539 5529 5552 5555 5565 5565 5556 5553 5548 5543 5470 5487 5529 5525 5484 5500 5556 5576 5580 5585 5593 5600 5605 5612
5546 5551 5552 5553 5552 5546 5539 5523 5501 5551 5559 5578 5570 5560 5554 5558 5557 5549 5544 5537 5539 5542 5498 5515 5539 5550 5558 5558 5546 5531 5529 5493 5507 5475 5510 5525 5532 5564 5583 5582 5584 5593 5599 5602 5605
5538 5543 5540 5544 5540 5533 5521 5480 5527 5537 5562 5560 5552 5542 5543 5553 5551 5538 5528 5529 5541 5542 5530 5513 5532 5551 5550 5552 5550 5527 5522 5531 5524 5500 5521 5523 5543 5572 5586 5581 5582 5584 5589 5597 5600
5523 5528 5527 5528 5524 5513 5495 5519 5526 5542 5547 5544 5536 5534 5530 5537 5527 5522 5523 5544 5550 5542 5544 5541 5526 5540 5541 5545 5544 5533 5529 5516 5514 5503 5514 5521 5527 5546 5577 5581 5580 5580 5579 5587 5596
5507 5507 5512 5509 5502 5488 5474 5486 5506 5522 5516 5517 5518 5517 5518 5525 5513 5503 5534 5548 5540 5531 5529 5523 5515 5520 5527 5525 5526 5526 5522 5519 5509 5499 5504 5512 5532 5552 5568 5572 5571 5570 5575 5576 5582
5473 5468 5489 5487 5472 5469 5455 5471 5483 5488 5484 5480 5489 5492 5494 5502 5499 5493 5509 5539 5531 5518 5509 5515 5495 5488 5513 5527 5528 5525 5526 5515 5498 5508 5486 5477 5528 5576 5568 5569 5566 5564 5571 5570 5575
5451 5451 5470 5466 5452 5434 5440 5444 5448 5445 5439 5451 5461 5468 5474 5472 5466 5496 5514 5524 5515 5506 5505 5503 5489 5468 5504 5506 5509 5512 5518 5530 5508 5492 5496 5487 5529 5572 5568 5565 5570 5571 5566 5563 5564
5423 5420 5429 5433 5414 5395 5391 5405 5404 5413 5417 5411 5408 5424 5430 5438 5454 5466 5483 5502 5500 5500 5511 5503 5482 5504 5527 5524 5503 5501 5511 5521 5513 5479 5526 5527 5555 5566 5565 5562 5567 5567 5564 5560 5564
5395 5397 5388 5378 5384 5372 5359 5365 5373 5374 5386 5388 5395 5389 5379 5386 5403 5421 5451 5455 5475 5492 5485 5476 5488 5488 5509 5517 5498 5506 5512 5510 5503 5525 5510 5548 5537 5574 5559 5553 5560 5561 5559 5559 5563
5361 5355 5355 5352 5342 5335 5332 5337 5335 5340 5339 5344 5334 5354 5358 5354 5358 5373 5395 5414 5421 5464 5462 5457 5483 5477 5495 5489 5483 5490 5500 5498 5508 5511 5520 5529 5536 5568 5560 5556 5556 5551 5552 5554 5560
5333 5329 5318 5336 5316 5302 5307 5311 5314 5309 5313 5318 5312 5315 5326 5342 5346 5358 5370 5397 5407 5409 5422 5439 5449 5447 5482 5478 5472 5469 5497 5495 5506 5516 5525 5505 5540 5560 5549 5549 5547 5550 5548 5551 5550